Change the Weather History Date:

Tuesday, August 13, 2013

  Actual Average Record
Temperature  
Mean Temperature 80 °F -  
Max Temperature 94 °F 82 °F 105 °F (2003)
Min Temperature 65 °F 60 °F 57 °F (2006)
Cooling Degree Days 14    
Growing Degree Days 30 (Base 50)    
Moisture  
Dew Point 63 °F    
Average Humidity 70    
Maximum Humidity 94    
Minimum Humidity 20    
Precipitation  
Precipitation 0.04 in 0.07 in - ()
Sea Level Pressure  
Sea Level Pressure 30.03 in    
Wind  
Wind Speed 4 mph ()    
Max Wind Speed 15 mph    
Max Gust Speed 23 mph    
Visibility 6.5 miles    
Events Rain , Thunderstorm    
Averages and records for this station are not official NWS values.
T = Trace of Precipitation, MM = Missing Value Source: Averaged Metar Reports

Daily Weather History Graph

Daily Weather History Graph

Search for Another Location

Airport or City:

Trip Planner

Search our weather history database for the weather conditions in past years. The results will help you decide how hot, cold, wet, or windy it might be!

Date:

Astronomy

Aug. 13, 2013 Rise Set
Actual Time 6:54 AM CEST 8:51 PM CEST
Civil Twilight 6:24 AM CEST 9:22 PM CEST
Nautical Twilight 5:47 AM CEST 9:58 PM CEST
Astronomical Twilight 5:07 AM CEST 10:38 PM CEST
Moon 1:40 PM CEST (8/13) No Moon Set
Length of Visible Light 14h 57m
Length of Day
13h 57m
Waxing Crescent, 39% of the Moon is Illuminated
Aug 13
Waxing Crescent
Aug 14
First Quarter
Aug 21
Full
Aug 28
Last Quarter
Sep 5
New

Hourly Weather History & Observations

Time (CEST) Temp. Heat Index Dew Point Humidity Pressure Visibility Wind Dir Wind Speed Gust Speed Precip Events Conditions
12:00 AM 73.4 °F - 64.4 °F 73% 30.01 in 6.2 mi Variable 2.3 mph - N/A   Scattered Clouds
12:30 AM 73.4 °F - 62.6 °F 69% 30.01 in 6.2 mi North 5.8 mph - N/A   Scattered Clouds
1:00 AM 73.4 °F - 64.4 °F 73% 30.01 in 6.2 mi Calm Calm - N/A   Scattered Clouds
1:30 AM 73.4 °F - 64.4 °F 73% 30.01 in 6.2 mi Calm Calm - N/A   Scattered Clouds
2:00 AM 71.6 °F - 64.4 °F 78% 30.01 in 6.2 mi SW 3.5 mph - N/A   Scattered Clouds
2:30 AM 69.8 °F - 64.4 °F 83% 30.01 in 6.2 mi Variable 2.3 mph - N/A   Scattered Clouds
3:00 AM 71.6 °F - 64.4 °F 78% 29.98 in 6.2 mi WSW 2.3 mph - N/A   Scattered Clouds
3:30 AM 71.6 °F - 64.4 °F 78% 29.98 in 6.2 mi Calm Calm - N/A   Scattered Clouds
4:00 AM 71.6 °F - 64.4 °F 78% 29.98 in 6.2 mi SSW 1.2 mph - N/A   Scattered Clouds
4:30 AM 69.8 °F - 64.4 °F 83% 29.98 in 6.2 mi Calm Calm - N/A   Scattered Clouds
5:00 AM 69.8 °F - 64.4 °F 83% 29.98 in 6.2 mi Calm Calm - N/A   Scattered Clouds
5:30 AM 69.8 °F - 64.4 °F 83% 29.98 in 6.2 mi Calm Calm - N/A   Scattered Clouds
6:00 AM 66.2 °F - 62.6 °F 88% 29.98 in 6.2 mi WSW 3.5 mph - N/A   Scattered Clouds
6:30 AM 66.2 °F - 62.6 °F 88% 30.01 in 6.2 mi SW 3.5 mph - N/A   Scattered Clouds
7:00 AM 64.4 °F - 62.6 °F 94% 30.01 in 6.2 mi NE 1.2 mph - N/A   Partly Cloudy
7:30 AM 66.2 °F - 62.6 °F 88% 30.01 in 6.2 mi NNE 8.1 mph - N/A   Partly Cloudy
8:00 AM 71 °F - 64 °F 73% 29.99 in 19 mi NNE 5.8 mph - -   Scattered Clouds
8:00 AM 69.8 °F - 64.4 °F 83% 30.01 in 6.2 mi NNE 5.8 mph - N/A   Partly Cloudy
8:30 AM 73.4 °F - 64.4 °F 73% 30.01 in 6.2 mi Calm Calm - N/A   Partly Cloudy
9:00 AM 77.0 °F - 62.6 °F 61% 30.04 in 6.2 mi Variable 2.3 mph - N/A   Partly Cloudy
9:30 AM 78.8 °F - 62.6 °F 57% 30.04 in 6.2 mi Variable 1.2 mph - N/A   Partly Cloudy
10:00 AM 80.6 °F 81.8 °F 62.6 °F 54% 30.04 in 6.2 mi Variable 2.3 mph - N/A   Partly Cloudy
10:30 AM 80.6 °F 81.5 °F 60.8 °F 51% 30.04 in 6.2 mi NNE 5.8 mph - N/A   Partly Cloudy
11:00 AM 84.2 °F 83.8 °F 59.0 °F 42% 30.04 in 6.2 mi NNE 9.2 mph - N/A   Partly Cloudy
11:30 AM 86.0 °F 85.4 °F 59.0 °F 40% 30.04 in 6.2 mi NNE 10.4 mph - N/A   Partly Cloudy
12:00 PM 86.0 °F 85.4 °F 59.0 °F 40% 30.04 in 6.2 mi NNE 8.1 mph - N/A   Partly Cloudy
12:30 PM 86.0 °F 85.4 °F 59.0 °F 40% 30.04 in 6.2 mi NE 8.1 mph - N/A   Partly Cloudy
1:00 PM 87.8 °F 86.5 °F 57.2 °F 35% 30.04 in 6.2 mi East 5.8 mph - N/A   Partly Cloudy
1:30 PM 87.8 °F 86.1 °F 55.4 °F 33% 30.04 in 6.2 mi Variable 4.6 mph - N/A   Partly Cloudy
2:00 PM 94 °F - 58 °F 20% 29.99 in 19 mi ESE 3.5 mph - -   Scattered Clouds
2:00 PM 89.6 °F 87.7 °F 55.4 °F 31% 30.04 in 6.2 mi East 3.5 mph - N/A   Partly Cloudy
2:30 PM 91.4 °F 89.4 °F 55.4 °F 29% 30.01 in 6.2 mi SSW 2.3 mph - N/A   Partly Cloudy
3:00 PM 89.6 °F 88.9 °F 59.0 °F 36% 30.01 in 6.2 mi SSW 10.4 mph 21.9 mph N/A   Scattered Clouds
3:30 PM 89.6 °F 90.1 °F 62.6 °F 40% 30.01 in 6.2 mi South 13.8 mph - N/A   Scattered Clouds
4:00 PM 86.0 °F 86.6 °F 62.6 °F 45% 30.01 in 6.2 mi South 15.0 mph - N/A   Scattered Clouds
4:30 PM 84.2 °F 84.4 °F 60.8 °F 45% 30.01 in 6.2 mi South 13.8 mph - N/A   Scattered Clouds
5:00 PM 82.4 °F 83.4 °F 62.6 °F 51% 30.04 in 6.2 mi South 9.2 mph - N/A   Scattered Clouds
5:30 PM 75.2 °F - 62.6 °F 65% 30.06 in 6.2 mi Variable 8.1 mph 19.6 mph N/A   Scattered Clouds
5:43 PM 71.6 °F - 64.4 °F 78% 30.06 in 6.2 mi WNW 10.4 mph - N/A Rain , Thunderstorm Light Thunderstorms and Rain
6:00 PM 71.6 °F - 66.2 °F 83% 30.06 in 6.2 mi North 8.1 mph 23.0 mph N/A Thunderstorm Thunderstorm
6:11 PM 69.8 °F - 64.4 °F 83% 30.06 in 5.6 mi North 9.2 mph - N/A Rain , Thunderstorm Light Thunderstorms and Rain
6:30 PM 68.0 °F - 64.4 °F 88% 30.09 in 5.0 mi WNW 11.5 mph 23.0 mph N/A Rain , Thunderstorm Thunderstorms and Rain
6:40 PM 68.0 °F - 64.4 °F 88% 30.09 in 3.1 mi WNW 9.2 mph 21.9 mph N/A Rain , Thunderstorm Thunderstorms and Rain
7:00 PM 66.2 °F - 64.4 °F 94% 30.06 in 3.7 mi NW 8.1 mph - N/A Rain , Thunderstorm Thunderstorms and Rain
7:11 PM 66.2 °F - 62.6 °F 88% 30.06 in 5.6 mi NW 9.2 mph - N/A Rain , Thunderstorm Light Thunderstorms and Rain
7:30 PM 66.2 °F - 62.6 °F 88% 30.06 in 5.6 mi NW 10.4 mph - N/A Rain , Thunderstorm Light Thunderstorms and Rain
8:00 PM 66.2 °F - 62.6 °F 88% 30.04 in 5.6 mi NW 11.5 mph 23.0 mph N/A Rain Light Rain
8:30 PM 66.2 °F - 64.4 °F 94% 30.04 in 6.2 mi SSE 4.6 mph - N/A   Scattered Clouds
9:00 PM 66.2 °F - 64.4 °F 94% 30.04 in 6.2 mi West 2.3 mph - N/A   Scattered Clouds
9:30 PM 66.2 °F - 64.4 °F 94% 30.06 in 6.2 mi SSW 3.5 mph - N/A   Scattered Clouds
10:00 PM 66.2 °F - 64.4 °F 94% 30.06 in 6.2 mi Calm Calm - N/A   Scattered Clouds
10:30 PM 66.2 °F - 64.4 °F 94% 30.06 in 6.2 mi Variable 2.3 mph - N/A   Scattered Clouds
11:00 PM 66.2 °F - 62.6 °F 88% 30.06 in 6.2 mi WNW 3.5 mph - N/A   Scattered Clouds
11:30 PM 66.2 °F - 64.4 °F 94% 30.06 in 6.2 mi Calm Calm - N/A   Partly Cloudy